Home > Weather > Fetsund > Past weeks

Flag for Norway Weather for the Past 2 Weeks in Fetsund, Norway

Now
38 °F

Chilly.


Feels Like: 33 °F
Forecast: 28 / 38 °F
Wind: 7 mph from South

Location: Oslo-Blindern

Current Time: Feb 8, 2016 at 10:11:47 AM

Latest Report: Feb 8, 2016 at 9:00 AM


Visibility: N/A

Pressure: 28.94 "Hg

Humidity: 91%

Dew point: 36 °F

Location of FetsundLocation

Historic Weather in Fetsund — Graph

°F

Fetsund Temperature Yesterday

Maximum temperature yesterday: 41 °F (at 8:00 AM)
Minimum temperature yesterday: 38 °F (at 11:00 PM)
Average temperature yesterday: 40 °F

High & Low Weather Summary for the Past Weeks

 TemperatureHumidityPressure
High43 °F (Jan 29, 5:00 PM)100% (Jan 25, 8:00 PM)30.16 "Hg (Jan 25, 8:00 PM)
Low25 °F (Feb 1, 6:00 AM)39% (Feb 4, 3:00 PM)28.76 "Hg (Feb 2, 7:00 PM)
Average35 °F85%29.43 "Hg
* Reported Jan 24 8:00 AM — Feb 8 8:00 AM, Fetsund, Weather by CustomWeather, © 2016

Note: Actual official high and low records may vary slightly from our data, if they occured in-between our weather recording intervals... More about our weather records

Advertising

Fetsund Weather History for the Previous 24 Hours

 ConditionsComfort  
Time TempWeatherWind HumidityBarometerVisibility
8:00 AM
Mon, Feb 8
39 °FChilly.9 mph92%28.94 "HgN/A
7:00 AM40 °FChilly.6 mph91%28.97 "HgN/A
5:00 AM40 °FChilly.9 mph90%29.00 "HgN/A
3:00 AM39 °FChilly.7 mph90%29.03 "HgN/A
2:00 AM39 °FChilly.7 mph91%29.06 "HgN/A
1:00 AM39 °FOvercast.6 mph87%29.09 "Hg12 mi
11:00 PM
Sun, Feb 7
38 °FChilly.7 mph88%29.09 "HgN/A
10:00 PM39 °FLow clouds.5 mph89%29.12 "Hg16 mi
9:00 PM40 °FQuite cool.6 mph89%29.12 "HgN/A
8:00 PM40 °FQuite cool.5 mph89%29.12 "HgN/A
7:00 PM41 °FLight rain. Low clouds.7 mph90%29.12 "Hg3 mi
6:00 PM40 °FQuite cool.5 mph96%29.12 "HgN/A
5:00 PM41 °FQuite cool.6 mph96%29.12 "HgN/A
4:00 PM41 °FLight rain. Low clouds.6 mph96%29.12 "Hg2 mi
3:00 PM40 °FQuite cool.3 mph96%29.15 "HgN/A
2:00 PM40 °FQuite cool.3 mph95%29.15 "HgN/A
1:00 PM40 °FLight rain. Low clouds.3 mph94%29.18 "Hg4 mi
12:00 PM41 °FQuite cool.6 mph90%29.21 "HgN/A
11:00 AM41 °FQuite cool.5 mph92%29.23 "HgN/A
10:00 AM41 °FFog.3 mph92%29.23 "Hg4 mi
Weather by CustomWeather, © 2016

See weather overviewHow to use our weather pages